IRIDIUM 57 [+]

Last updated on Thu Jun 23 2016 18:38:10 GMT+0100 (British Summer Time)

1 25273U 98019B 16175.27410102 .00000090 00000-0 24977-4 0 9995 2 25273 86.3974 77.3719 0002147 88.9196 271.2245 14.34223897954629
UTC large
Height (km)
Speed (km/s)
/
Latitude / Longitude
Inclination (degrees)
Orbital Period (minutes)
Azimuth
Elevation
Range (km)
Doppler Factor

Next 0 passes for location: London (51.5072 / 0.1276)

Sorry there are no passes over London.